DW0383 Weather Reports


time (UTC)temp
F
wind
direction
speed
knots
gust
knots
rain 1hr
in
rain 24hr
in
rain mn
in
humidity
%
barometer
mb
20260506202309 44 320 1.7 2.6 0.04 1.16 0.93 96 1007.1
20260506201822 44 329 1.7 2.6 0.03 1.15 0.92 96 1006.9
20260506201336 44 339 0.0 3.5 0.02 1.14 0.91 96 1006.9
20260506200827 44 14 0.9 3.5 0.02 1.14 0.91 96 1007.0
20260506200321 44 326 0.0 2.6 0.02 1.13 0.90 96 1006.9
20260506195812 44 326 0.9 2.6 0.02 1.23 0.90 96 1006.8
20260506195346 44 325 1.7 2.6 0.02 1.23 0.90 96 1006.7
20260506194817 44 332 1.7 2.6 0.02 1.23 0.90 97 1006.7
20260506194329 44 327 0.9 2.6 0.03 1.23 0.90 96 1006.7
20260506193807 44 331 1.7 1.7 0.03 1.23 0.90 96 1006.6
20260506193320 44 350 0.9 2.6 0.03 1.23 0.90 96 1006.7
20260506192812 44 85 0.9 2.6 0.03 1.22 0.89 96 1006.5
20260506192345 44 291 0.9 4.3 0.03 1.22 0.89 96 1006.6
20260506191816 44 55 2.6 5.2 0.03 1.22 0.89 96 1006.4
20260506191311 44 83 2.6 4.3 0.03 1.22 0.89 96 1006.5
20260506190825 44 77 2.6 4.3 0.02 1.21 0.88 96 1006.5
20260506190325 44 330 0.0 2.6 0.02 1.21 0.88 97 1006.6
20260506185827 44 330 0.0 2.6 0.03 1.23 0.88 97 1006.8
20260506185320 44 323 0.9 2.6 0.03 1.23 0.88 97 1006.9
20260506184832 44 27 0.9 2.6 0.04 1.23 0.88 97 1007.0
20260506184343 44 326 0.9 2.6 0.04 1.22 0.87 97 1007.2
20260506183818 44 329 0.9 2.6 0.05 1.22 0.87 97 1007.0
20260506183309 44 328 0.9 2.6 0.05 1.22 0.87 97 1007.1
20260506182809 44 334 0.9 4.3 0.05 1.21 0.86 97 1007.2
20260506182322 44 320 0.9 4.3 0.06 1.21 0.86 97 1007.2
20260506181813 44 324 0.0 2.6 0.07 1.21 0.86 97 1007.2
20260506181306 44 324 0.9 2.6 0.07 1.21 0.86 97 1007.5
20260506180818 44 320 0.9 2.6 0.08 1.21 0.86 97 1007.5
20260506180310 44 320 0.9 2.6 0.07 1.20 0.85 97 1007.5
20260506175844 44 325 0.9 2.6 0.07 1.20 0.85 97 1007.4
20260506175336 44 313 0.0 1.7 0.08 1.20 0.85 97 1007.6
20260506174810 43 313 0.9 1.7 0.08 1.19 0.84 97 1007.7
20260506174321 43 313 0.0 1.7 0.07 1.18 0.83 97 1007.6
20260506173814 43 313 0.0 1.7 0.07 1.17 0.82 97 1007.6
20260506173307 43 313 0.0 1.7 0.08 1.17 0.82 96 1007.7
20260506172821 43 313 0.0 2.6 0.09 1.16 0.81 96 1007.6
20260506172318 43 313 1.7 2.6 0.09 1.15 0.80 96 1007.8
20260506171811 43 313 1.7 1.7 0.09 1.14 0.79 96 1007.8
20260506171324 43 329 0.9 1.7 0.10 1.14 0.79 97 1007.7
20260506170816 43 329 0.0 0.9 0.10 1.13 0.78 97 1007.7
20260506170328 43 329 0.0 2.6 0.11 1.13 0.78 97 1007.7
20260506165819 44 324 1.7 2.6 0.11 1.12 0.77 97 1007.8
20260506165337 44 307 0.9 1.7 0.12 1.12 0.77 97 1007.9
20260506164808 43 247 0.0 0.9 0.13 1.11 0.76 97 1007.8
20260506164320 43 247 0.0 0.9 0.14 1.11 0.76 97 1007.9
20260506163813 43 247 0.0 1.7 0.14 1.10 0.75 97 1008.0
20260506163311 43 247 0.0 1.7 0.13 1.09 0.74 97 1008.1
20260506162843 43 247 0.0 1.7 0.12 1.07 0.72 96 1008.0
20260506162314 43 247 0.9 1.7 0.12 1.06 0.71 96 1008.1
20260506161825 43 247 1.7 3.5 0.12 1.05 0.70 96 1008.1
20260506161336 43 245 1.7 3.5 0.12 1.04 0.69 96 1008.4
20260506160808 43 289 0.9 2.6 0.12 1.03 0.68 96 1008.4
20260506160321 43 315 0.0 2.6 0.12 1.02 0.67 96 1008.3
20260506155823 43 315 1.7 4.3 0.12 1.01 0.66 96 1008.4
20260506155316 43 329 1.7 4.3 0.12 1.00 0.65 96 1008.5
20260506154810 43 351 1.7 3.5 0.10 0.98 0.63 96 1008.5
20260506154322 43 322 1.7 6.1 0.10 0.97 0.62 96 1008.4
20260506153823 43 350 1.7 6.1 0.10 0.96 0.61 96 1008.4
20260506153325 43 315 1.7 4.3 0.10 0.96 0.61 96 1008.5
20260506152817 44 344 2.6 4.3 0.10 0.95 0.60 96 1008.3
20260506152311 44 319 1.7 2.6 0.09 0.93 0.58 96 1008.2
20260506151825 44 332 0.9 2.6 0.09 0.93 0.58 96 1008.2
20260506151316 44 317 0.9 2.6 0.09 0.92 0.57 96 1008.2
20260506150810 44 76 0.9 2.6 0.09 0.91 0.56 95 1007.9
20260506150343 44 71 0.0 1.7 0.08 0.90 0.55 96 1007.9
20260506145834 44 333 0.0 1.7 0.08 0.89 0.54 96 1008.0
20260506145307 44 12 0.9 2.6 0.07 0.88 0.53 95 1008.0
20260506144820 44 95 0.0 3.5 0.08 0.88 0.53 95 1008.0
20260506144314 44 70 1.7 4.3 0.07 0.87 0.52 95 1008.0
20260506143808 44 61 2.6 4.3 0.06 0.86 0.51 96 1008.1
20260506143320 44 68 0.9 1.7 0.05 0.85 0.50 96 1008.2
20260506142814 44 275 0.0 0.9 0.05 0.85 0.50 96 1008.2
20260506142307 44 275 0.0 1.7 0.04 0.84 0.49 96 1008.5
20260506141818 44 273 0.9 1.7 0.04 0.84 0.49 96 1008.5
20260506141310 44 273 0.0 1.7 0.04 0.83 0.48 96 1008.2
20260506140823 44 273 0.0 1.7 0.03 0.82 0.47 96 1008.2
20260506140316 44 335 0.0 1.7 0.02 0.81 0.46 95 1008.3
20260506135809 44 15 0.0 6.1 0.02 0.81 0.46 95 1008.2
20260506135321 44 29 1.7 6.1 0.02 0.81 0.46 95 1008.0
20260506134817 44 67 2.6 4.3 0.03 0.80 0.45 95 1008.0
20260506134308 44 91 1.7 3.5 0.04 0.80 0.45 95 1008.0
20260506133822 45 313 0.9 2.6 0.04 0.80 0.45 95 1008.2
20260506133315 45 313 0.9 2.6 0.05 0.80 0.45 96 1008.2
20260506132808 45 349 0.9 1.7 0.06 0.80 0.45 96 1008.3
20260506132320 45 349 0.9 1.7 0.07 0.80 0.45 96 1008.3
20260506131814 45 349 0.0 2.6 0.07 0.80 0.45 96 1008.5
20260506131306 45 349 0.0 2.6 0.07 0.79 0.44 96 1008.7
20260506130820 45 286 0.0 1.7 0.08 0.79 0.44 96 1008.7
20260506130322 45 286 0.0 1.7 0.08 0.79 0.44 96 1008.8
20260506125815 45 286 0.9 2.6 0.09 0.79 0.44 96 1008.8
20260506125344 45 347 0.9 4.3 0.10 0.79 0.44 96 1008.8
20260506124816 45 320 0.9 7.0 0.09 0.77 0.42 96 1008.9
20260506124330 45 116 4.3 7.0 0.08 0.76 0.41 96 1008.5
20260506123821 45 283 3.5 6.1 0.08 0.75 0.40 96 1008.6
20260506123315 45 118 0.9 7.0 0.09 0.75 0.40 96 1008.7
20260506122806 45 122 4.3 7.0 0.09 0.74 0.39 96 1008.6
20260506122318 45 58 0.0 2.6 0.09 0.73 0.38 96 1009.0
20260506121810 45 343 0.9 4.3 0.10 0.73 0.38 96 1009.3
20260506121341 45 316 0.0 3.5 0.09 0.72 0.37 96 1009.1
20260506120813 45 320 0.9 3.5 0.09 0.71 0.36 96 1009.1
20260506120306 45 77 2.6 3.5 0.08 0.70 0.35 96 1009.2
20260506115819 45 93 0.9 3.5 0.08 0.70 0.35 96 1009.2
20260506115340 45 67 1.7 3.5 0.08 0.69 0.34 96 1009.3
20260506114812 45 52 0.0 1.7 0.07 0.68 0.33 96 1009.2
20260506114308 45 335 0.0 1.7 0.06 0.67 0.32 96 1009.5
20260506113817 46 335 0.0 1.7 0.07 0.67 0.32 96 1009.6
20260506113322 46 335 1.7 1.7 0.06 0.66 0.31 96 1009.5
20260506112815 46 335 0.0 1.7 0.05 0.65 0.30 96 1009.2
20260506112308 46 335 0.9 3.5 0.04 0.64 0.29 96 1009.2
20260506111841 46 59 1.7 4.3 0.03 0.63 0.28 96 1008.9
20260506111312 46 59 1.7 7.0 0.03 0.63 0.28 95 1008.7
20260506110824 46 97 3.5 7.8 0.02 0.62 0.27 96 1008.5
20260506110317 47 62 3.5 7.8 0.02 0.62 0.27 96 1008.5
20260506105831 47 121 2.6 4.3 0.02 0.62 0.27 97 1008.6
20260506105342 47 323 0.0 1.7 0.01 0.61 0.26 97 1008.6
20260506104814 47 322 0.9 1.7 0.03 0.61 0.26 97 1008.7
20260506104310 47 322 0.9 1.7 0.03 0.61 0.26 97 1008.7
20260506103819 47 323 0.9 2.6 0.02 0.60 0.25 97 1008.6
20260506103318 47 323 1.7 2.6 0.03 0.60 0.25 97 1008.6
20260506102811 47 323 0.9 1.7 0.03 0.60 0.25 97 1008.5
20260506102313 47 322 0.9 1.7 0.03 0.60 0.25 97 1008.5
20260506101826 47 322 0.9 2.6 0.03 0.60 0.25 97 1008.5
20260506101345 47 323 1.7 2.6 0.04 0.60 0.25 97 1008.6
20260506100836 48 278 1.7 2.6 0.05 0.60 0.25 97 1008.5
20260506100308 48 275 1.7 2.6 0.05 0.60 0.25 97 1008.4
20260506095822 48 133 0.9 3.5 0.05 0.60 0.25 97 1008.3
20260506095314 48 129 2.6 3.5 0.05 0.59 0.24 97 1008.6
20260506094808 48 289 0.9 2.6 0.04 0.58 0.23 97 1009.4
20260506094320 48 324 0.9 1.7 0.04 0.58 0.23 96 1008.9
20260506093811 48 88 0.0 2.6 0.04 0.58 0.23 96 1008.5
20260506093308 48 85 1.7 2.6 0.03 0.57 0.22 96 1008.6
20260506092820 48 4 0.0 3.5 0.05 0.57 0.22 96 1009.1
20260506092333 48 4 0.9 3.5 0.05 0.57 0.22 96 1009.2
20260506091825 48 74 0.9 2.6 0.05 0.57 0.22 96 1008.9
20260506091316 48 299 1.7 4.3 0.04 0.56 0.21 96 1009.6
20260506090813 48 326 2.6 4.3 0.04 0.55 0.20 96 1009.2
20260506090310 48 9 0.0 1.7 0.04 0.55 0.20 96 1009.0
20260506085822 48 9 0.9 1.7 0.05 0.55 0.20 96 1009.2
20260506085335 48 272 1.7 3.5 0.07 0.54 0.19 96 1009.3
20260506084807 48 39 0.9 3.5 0.07 0.54 0.19 96 1009.1
20260506084319 48 1 1.7 2.6 0.07 0.54 0.19 96 1009.3
20260506083832 49 114 0.9 2.6 0.07 0.54 0.19 96 1009.3
20260506083325 49 97 1.7 3.5 0.07 0.54 0.19 96 1009.2
20260506082818 49 123 2.6 3.5 0.05 0.52 0.17 96 1009.0
20260506082331 49 321 0.0 2.6 0.05 0.52 0.17 96 1009.5
20260506081822 49 324 0.9 1.7 0.05 0.52 0.17 96 1009.3
20260506081314 50 339 0.0 1.7 0.05 0.52 0.17 97 1009.4
20260506080828 50 339 0.9 2.6 0.04 0.51 0.16 96 1009.3
20260506080326 50 339 0.9 3.5 0.04 0.51 0.16 96 1009.4
20260506073309 50 49 0.0 1.7 0.00 0.47 0.12 96 1008.8
20260506072823 50 49 0.0 3.5 0.00 0.47 0.12 96 1009.0
20260506072315 50 37 1.7 3.5 0.00 0.47 0.12 96 1009.0
20260506071807 50 83 0.9 6.1 0.00 0.47 0.12 97 1008.8
20260506071319 50 60 1.7 6.1 0.00 0.47 0.12 97 1008.7
20260506070812 51 72 2.6 4.3 0.00 0.47 0.12 97 1008.7
20260506070325 51 112 1.7 2.6 0.01 0.47 0.12 97 1008.7
20260506062347 51 122 0.9 2.6 0.02 0.47 0.12 97 1008.7
20260506061818 51 89 0.9 1.7 0.03 0.47 0.12 97 1008.9
20260506061313 51 322 0.9 1.7 0.04 0.47 0.12 97 1008.9
20260506060806 51 322 0.9 1.7 0.05 0.47 0.12 97 1009.0
20260506060318 51 322 0.9 1.7 0.05 0.46 0.11 97 1008.9
20260506051319 52 254 0.9 2.6 0.07 0.43 0.08 97 1009.1
20260506050812 52 276 0.9 2.6 0.07 0.42 0.07 97 1009.1
20260506050326 52 276 0.9 2.6 0.06 0.41 0.06 97 1009.0
20260506044824 52 247 0.0 1.7 0.05 0.39 0.04 97 1008.6
20260506044316 52 209 0.0 1.7 0.06 0.39 0.04 97 1008.6
20260506043829 52 209 0.9 1.7 0.06 0.39 0.04 97 1008.5
20260506043321 52 262 0.9 2.6 0.06 0.38 0.03 97 1008.5
20260506042832 52 131 0.9 2.6 0.08 0.38 0.03 97 1008.6
20260506042323 52 208 0.0 1.7 0.09 0.38 0.03 97 1008.3
20260506041815 52 208 0.9 2.6 0.09 0.37 0.02 97 1008.7
20260506041307 52 100 1.7 2.6 0.10 0.36 0.01 97 1008.6
20260506040820 52 249 0.9 1.7 0.10 0.35 0.00 97 1009.1
20260506040343 52 249 0.0 1.7 0.11 0.35 0.00 96 1008.9
20260506035815 52 249 0.0 1.7 0.11 0.35 0.35 96 1008.8
20260506035308 52 249 0.9 1.7 0.10 0.34 0.34 96 1008.8
20260506034822 52 249 0.0 1.7 0.10 0.34 0.34 96 1009.0
20260506034335 52 249 1.7 1.7 0.09 0.33 0.33 96 1008.9
20260506033806 53 249 0.9 1.7 0.09 0.33 0.33 96 1008.7
20260506033318 53 249 0.9 1.7 0.08 0.32 0.32 96 1008.7
20260506032818 53 249 0.9 1.7 0.06 0.30 0.30 96 1008.8
20260506032330 53 249 0.0 0.9 0.04 0.28 0.28 96 1008.7
20260506031821 53 249 0.0 1.7 0.04 0.28 0.28 96 1008.7
20260506031313 53 249 0.9 1.7 0.02 0.26 0.26 96 1008.5
20260506030846 53 249 0.9 1.7 0.01 0.25 0.25 96 1008.4
20260506030319 54 249 0.9 1.7 0.00 0.24 0.24 96 1008.3
20260506025812 54 249 0.9 2.6 0.01 0.24 0.24 95 1008.1
20260506025312 54 249 0.9 2.6 0.01 0.24 0.24 95 1008.0
20260506024825 55 249 1.7 2.6 0.01 0.24 0.24 96 1007.9
20260506024339 55 303 0.9 2.6 0.01 0.24 0.24 96 1007.7
20260506023810 55 303 1.7 2.6 0.01 0.24 0.24 96 1007.7
20260506023307 55 323 0.9 4.3 0.01 0.24 0.24 96 1007.4
20260506022820 56 328 1.7 4.3 0.01 0.24 0.24 97 1007.4
20260506022313 56 291 1.7 3.5 0.01 0.24 0.24 97 1007.5
20260506021824 56 293 1.7 3.5 0.01 0.24 0.24 97 1007.4
20260506021317 56 286 1.7 7.0 0.01 0.24 0.24 97 1007.3
20260506020808 56 317 0.9 4.3 0.01 0.24 0.24 97 1006.9
20260506020321 56 136 0.9 1.7 0.01 0.24 0.24 97 1006.9
20260506015812 56 136 0.0 0.0 0.00 0.23 0.23 97 1007.0
20260506015334 56 136 0.0 1.7 0.00 0.23 0.23 96 1007.1
20260506014825 56 136 0.9 1.7 0.00 0.23 0.23 96 1007.1
20260506014337 56 136 0.0 1.7 0.01 0.23 0.23 96 1007.0
20260506013808 56 136 0.0 0.9 0.01 0.23 0.23 97 1006.9
20260506013320 56 136 0.0 1.7 0.01 0.23 0.23 97 1006.7
20260506012833 56 136 0.0 1.7 0.01 0.23 0.23 97 1006.4
20260506012325 56 136 0.0 1.7 0.01 0.23 0.23 96 1006.2
20260506011818 56 136 0.9 1.7 0.01 0.23 0.23 96 1006.2
20260506011310 56 136 0.9 2.6 0.01 0.23 0.23 96 1006.0
20260506010822 56 136 0.9 2.6 0.01 0.23 0.23 97 1005.8
20260506010316 56 136 0.0 1.7 0.01 0.23 0.23 97 1006.0
20260506005808 56 136 0.0 1.7 0.01 0.23 0.23 97 1006.0
20260506005322 56 136 0.0 0.9 0.01 0.23 0.23 97 1005.8
20260506004815 56 136 0.9 1.7 0.01 0.23 0.23 96 1006.0
20260506004309 56 136 0.9 1.7 0.00 0.22 0.22 96 1005.9
20260506003843 56 136 0.0 1.7 0.00 0.22 0.22 96 1005.8
20260506003314 56 136 0.9 1.7 0.00 0.22 0.22 96 1005.6
20260506002808 56 136 0.9 1.7 0.00 0.22 0.22 96 1005.6
20260506002322 57 136 0.0 1.7 0.00 0.22 0.22 96 1005.5
20260506001814 57 136 0.9 2.6 0.00 0.22 0.22 96 1005.4
20260506001307 57 136 0.9 2.6 0.00 0.22 0.22 96 1005.3
20260506000819 57 214 0.9 2.6 0.00 0.22 0.22 96 1005.4
20260506000317 57 130 0.9 2.6 0.00 0.22 0.22 96 1005.2
20260505235808 57 277 0.0 2.6 0.00 0.22 0.22 95 1005.2
20260505235321 57 146 0.9 2.6 0.00 0.22 0.22 95 1005.3
20260505234812 57 146 0.9 2.6 0.00 0.22 0.22 96 1005.3
20260505234325 57 239 0.9 2.6 0.00 0.22 0.22 96 1005.3
20260505233838 57 266 0.9 1.7 0.00 0.22 0.22 95 1005.3
20260505233330 58 266 0.0 2.6 0.00 0.22 0.22 95 1005.4
20260505232822 58 251 0.0 2.6 0.00 0.22 0.22 95 1005.4
20260505232335 58 185 0.9 2.6 0.00 0.22 0.22 95 1005.4
20260505231835 58 255 0.9 2.6 0.00 0.22 0.22 95 1005.2
20260505231307 58 255 0.9 2.6 0.00 0.22 0.22 95 1004.9
20260505230820 58 255 0.9 2.6 0.00 0.22 0.22 95 1004.7
20260505230314 59 255 0.0 4.3 0.00 0.22 0.22 95 1004.5
20260505225826 59 185 1.7 4.3 0.00 0.22 0.22 95 1004.5
20260505225340 59 285 0.9 3.5 0.00 0.22 0.22 95 1004.6
20260505224832 59 276 0.0 2.6 0.00 0.22 0.22 95 1004.6
20260505224325 59 276 0.9 3.5 0.00 0.22 0.22 95 1004.6
20260505223817 59 207 1.7 2.6 0.00 0.22 0.22 95 1004.7
20260505223311 59 234 0.9 2.6 0.00 0.22 0.22 95 1004.7
20260505222823 59 234 1.7 2.6 0.00 0.22 0.22 94 1004.9
20260505222334 59 234 1.7 2.6 0.00 0.22 0.22 94 1005.1
20260505221826 59 251 1.7 2.6 0.00 0.22 0.22 94 1005.0
20260505221318 59 251 1.7 2.6 0.00 0.22 0.22 94 1004.9
20260505220810 60 251 1.7 2.6 0.00 0.22 0.22 94 1004.7
20260505220322 60 185 0.9 3.5 0.00 0.22 0.22 94 1004.6
20260505215815 60 137 0.9 3.5 0.00 0.22 0.22 94 1004.6
20260505215307 60 185 0.9 3.5 0.00 0.22 0.22 93 1004.5
20260505214819 60 168 1.7 3.5 0.00 0.22 0.22 94 1004.4
20260505214312 60 77 0.9 3.5 0.00 0.22 0.22 95 1004.6
20260505213825 59 241 1.7 4.3 0.00 0.22 0.22 94 1004.6
20260505213317 59 269 1.7 3.5 0.02 0.22 0.22 94 1004.6
20260505212811 60 230 0.9 3.5 0.04 0.22 0.22 94 1004.6
20260505212324 60 247 0.9 3.5 0.06 0.22 0.22 93 1004.5
20260505211838 60 273 0.9 2.6 0.09 0.22 0.22 93 1004.7
20260505211309 60 13 0.9 2.6 0.10 0.22 0.22 93 1004.4
20260505210807 60 259 1.7 2.6 0.10 0.22 0.22 93 1004.6
20260505210321 61 250 1.7 3.5 0.10 0.22 0.22 93 1004.4
20260505205834 61 145 1.7 3.5 0.10 0.22 0.22 93 1004.2
20260505205341 61 167 1.7 2.6 0.10 0.22 0.22 93 1004.2
20260505204818 61 153 0.0 3.5 0.10 0.22 0.22 94 1004.2
20260505204312 61 159 0.9 2.6 0.10 0.22 0.22 95 1004.3
20260505203824 61 175 0.9 2.6 0.10 0.22 0.22 95 1004.2
20260505203318 61 158 0.9 2.6 0.08 0.20 0.20 93 1004.2
20260505202812 61 149 1.7 3.5 0.06 0.18 0.18 93 1004.4
20260505202324 61 285 1.7 7.0 0.04 0.15 0.15 93 1004.7